Wind_Speed
31 32 33 34 34 35 35 35 36 36 36 36 35 36 36 36 36 36 36 37 37 38 38 37 37 37 37 37 36 36 36 35 35 35 35 34 34 34 34 33 33 32 32
32 33 34 35 35 35 36 36 37 37 37 37 37 37 37 37 37 37 37 37 38 38 39 39 39 40 39 39 39 39 39 39 38 38 38 38 37 36 36 35 35 35 35
33 33 34 35 35 36 36 37 37 37 38 38 38 39 38 38 38 38 38 39 39 39 40 40 41 41 42 42 41 41 41 41 41 40 40 40 39 39 39 38 38 37 37
33 34 35 35 36 36 37 37 38 38 39 39 39 39 39 40 40 40 40 40 40 41 42 42 42 43 43 43 43 43 43 43 42 43 42 41 40 40 41 41 40 40 39
35 35 35 36 37 37 38 38 38 39 39 40 40 41 41 41 41 42 41 42 42 42 43 43 43 43 44 44 44 44 44 43 44 44 43 43 42 42 42 42 41 41 41
36 35 35 36 37 38 38 38 39 39 40 40 40 40 41 42 42 42 43 43 43 43 43 43 43 43 44 44 45 45 45 45 45 45 44 45 45 44 44 44 43 43 43
36 36 36 36 36 37 38 38 39 39 38 39 40 40 41 42 43 43 43 44 43 42 43 44 44 44 44 43 45 45 45 45 45 45 44 45 45 45 45 45 45 44 44
36 36 36 37 37 37 38 38 38 38 39 39 40 40 41 41 42 43 44 44 44 43 42 43 44 44 44 44 44 45 46 46 45 46 46 46 46 47 46 44 44 44 45
37 36 36 38 37 37 38 38 38 39 40 41 41 41 41 40 41 42 43 43 43 43 43 43 44 45 44 45 45 44 45 45 46 46 47 47 46 46 46 46 46 45 45
37 36 36 36 36 37 38 38 38 39 39 40 40 41 41 40 41 41 42 43 43 44 44 44 44 45 47 47 46 45 45 46 46 47 47 48 48 47 46 47 46 47 47
37 37 37 36 36 37 37 37 39 39 39 40 40 40 41 41 41 42 42 43 44 45 46 46 45 45 45 46 47 47 47 47 47 47 48 49 50 50 49 49 48 47 47
38 38 38 38 38 37 37 38 39 39 40 40 40 41 41 41 42 43 43 43 44 45 45 45 45 46 46 47 47 48 49 49 48 47 47 49 50 50 50 50 50 49 48
38 38 38 38 38 38 38 39 39 39 40 40 41 41 42 42 42 43 43 43 43 43 44 44 45 46 48 49 49 50 50 51 50 50 49 51 50 50 51 51 50 49 48
38 38 39 39 39 39 39 39 39 40 40 40 41 41 42 43 44 44 44 44 44 43 44 45 46 48 49 50 51 51 52 52 52 51 51 51 51 51 52 52 52 52 50
39 39 40 40 40 40 40 40 40 40 40 40 41 41 42 43 43 43 44 44 44 44 43 45 47 48 50 51 51 52 52 52 52 52 51 51 50 51 52 53 52 52 52
40 39 39 39 39 39 39 40 40 39 40 40 40 40 41 41 42 43 43 44 45 45 45 45 47 49 50 51 52 52 51 51 52 52 52 52 52 53 53 53 54 53 53
39 39 39 39 39 39 38 39 39 39 39 39 40 40 41 42 42 43 43 44 45 46 47 47 47 48 49 50 51 51 51 51 51 52 52 51 52 53 53 54 53 53 53
38 38 38 39 39 39 39 39 39 39 39 39 40 40 41 41 42 43 44 44 45 47 47 47 47 48 49 49 49 50 50 50 50 51 51 51 51 52 53 54 54 53 54
36 37 38 38 39 39 39 40 40 40 40 40 40 40 40 41 42 43 44 44 45 46 47 47 47 47 48 48 47 48 48 49 50 49 51 52 52 52 53 53 53 54 54
37 38 38 39 40 40 40 40 41 41 41 41 41 41 41 42 42 43 44 44 45 46 47 47 47 46 46 47 47 47 47 48 49 50 51 52 52 52 52 52 52 53 53
39 39 40 40 40 40 40 40 41 41 41 42 42 42 42 42 42 43 44 44 45 46 46 46 45 45 46 46 46 47 47 47 48 49 50 51 51 50 50 50 51 52 52
39 40 40 40 41 41 41 41 41 41 41 41 42 42 43 43 43 44 45 45 46 46 46 46 45 45 45 46 46 46 46 46 47 48 48 49 49 50 50 49 49 50 51
39 40 40 40 41 41 41 41 41 40 40 41 41 42 43 44 45 45 46 46 45 45 45 45 45 45 45 45 45 45 45 45 46 47 47 47 49 50 50 49 49 49 49
39 40 40 41 41 41 41 42 41 41 41 42 42 43 44 44 45 45 45 45 45 45 46 46 44 44 43 44 44 44 44 44 44 46 47 47 48 48 48 48 48 49 49
39 39 40 41 41 42 42 42 42 42 42 43 43 44 44 44 44 44 44 44 44 45 45 45 44 43 43 43 43 44 44 43 43 45 46 46 46 45 45 46 47 46 46
38 39 40 40 41 41 41 42 42 43 43 43 43 43 44 44 44 43 43 44 44 44 44 43 43 43 43 43 43 43 44 43 43 42 43 43 44 44 43 43 44 45 44
Wind_Direction
269 271 271 271 271 270 270 271 272 272 272 271 271 271 271 271 271 271 270 270 269 268 268 268 269 269 270 270 271 271 271 272 273 273 274 274 275 275 276 277 278 279 280
271 272 272 272 272 271 270 271 271 271 271 271 271 272 272 272 271 271 270 270 270 269 268 268 268 268 269 269 270 270 270 270 271 272 273 273 273 274 274 275 276 277 278
271 272 273 273 272 272 271 271 272 272 272 272 271 271 272 271 270 270 270 270 269 269 269 268 268 268 269 269 269 269 269 270 270 271 272 272 273 273 273 273 274 275 276
272 273 273 274 274 273 272 273 273 273 273 272 271 271 272 272 270 269 270 270 270 269 268 269 268 268 268 269 269 269 270 270 270 270 271 272 272 272 273 273 273 273 274
273 274 274 275 276 275 274 274 274 274 273 273 272 272 271 271 270 269 269 270 270 270 269 268 268 268 269 268 269 270 270 271 270 271 271 271 271 272 272 272 272 272 273
274 274 274 275 275 275 275 275 275 274 273 273 273 272 271 271 270 270 270 270 270 270 270 269 269 268 269 269 269 269 270 270 270 271 272 271 271 271 272 272 272 271 271
274 274 275 274 275 275 275 275 275 275 274 274 273 273 272 272 271 270 270 270 270 271 270 269 270 269 269 269 269 269 269 270 270 271 271 271 270 272 273 272 272 272 271
275 275 275 275 276 277 276 275 275 274 275 275 274 273 273 272 271 269 269 269 268 270 271 270 269 269 269 270 271 271 270 271 271 270 271 271 271 271 272 273 272 272 271
275 275 275 276 277 278 278 277 276 275 275 275 274 274 273 272 271 270 268 268 269 269 271 271 270 269 269 269 269 270 270 271 271 270 270 270 272 273 272 272 271 271 271
274 275 277 279 279 278 279 278 277 276 276 275 275 275 275 274 271 270 269 269 269 269 271 272 271 269 268 268 268 268 269 270 270 270 270 270 270 271 271 271 270 271 271
275 276 279 281 281 280 280 279 279 278 277 276 275 275 275 275 274 272 271 270 270 271 271 271 270 270 270 269 269 268 268 270 271 270 270 270 270 270 270 272 271 272 271
276 278 279 280 282 282 281 281 280 279 278 277 276 275 275 276 276 274 272 271 271 272 271 271 271 270 269 269 269 269 268 269 269 270 270 270 269 270 269 271 271 271 271
277 278 279 280 281 282 282 282 282 281 280 279 278 277 276 276 276 275 274 273 273 272 272 272 271 271 270 270 271 271 270 269 270 270 270 270 270 269 269 269 270 269 269
277 278 279 280 281 282 282 283 283 282 281 280 279 278 277 276 276 276 275 274 273 273 273 273 272 273 272 272 272 271 271 269 269 270 270 270 269 269 269 268 268 268 269
276 278 279 280 280 281 282 282 283 282 282 281 280 279 278 277 277 277 277 276 275 275 274 274 274 274 273 273 272 272 271 270 269 270 270 270 269 269 269 268 267 268 268
275 277 279 280 280 281 281 282 283 282 282 282 281 281 280 279 279 278 278 277 277 277 276 276 276 276 275 274 274 273 271 270 269 269 269 269 268 268 268 267 266 267 267
274 276 278 279 280 281 282 282 283 282 282 282 282 282 282 281 280 280 279 278 278 278 278 277 277 276 276 275 274 272 272 271 270 270 270 269 269 270 269 267 266 267 268
276 277 278 279 280 281 281 282 283 283 282 282 282 282 282 282 281 281 280 280 280 280 279 279 278 277 276 275 274 273 272 271 271 271 270 270 271 271 270 268 267 267 268
277 278 280 281 281 282 282 282 283 283 282 282 282 282 282 282 281 282 281 281 282 281 281 280 280 278 277 275 273 272 272 272 272 272 272 271 271 272 271 270 268 268 268
277 279 280 281 282 282 283 283 283 282 281 281 281 282 283 283 282 282 282 282 283 282 281 281 280 279 277 276 273 272 272 273 274 274 273 272 272 272 272 271 269 269 270
278 280 281 282 283 283 283 283 283 283 282 281 281 282 283 283 283 283 284 284 284 283 282 281 281 280 279 277 274 273 272 272 274 274 273 273 273 273 274 273 270 270 271
279 280 281 282 283 283 284 284 284 283 282 282 282 282 283 283 283 284 284 284 284 284 283 282 282 281 280 277 275 274 274 272 273 273 274 272 273 273 274 273 271 271 271
280 281 282 282 283 283 284 284 284 283 283 283 283 283 283 283 284 285 285 285 285 286 285 284 283 282 280 277 276 277 276 275 274 273 274 273 274 274 275 274 271 270 271
280 281 282 283 284 284 284 284 283 283 283 283 283 284 285 286 286 286 286 286 286 287 286 285 284 283 280 278 278 277 277 275 274 275 275 275 275 276 275 273 273 271 271
282 283 284 285 285 285 284 284 284 283 283 283 284 285 286 286 287 287 287 287 287 287 286 284 283 282 280 279 279 279 277 276 275 275 276 275 275 275 274 273 273 273 272
283 284 284 285 285 285 285 285 284 284 283 283 284 286 287 288 288 288 288 288 287 287 286 284 283 282 280 279 279 280 279 278 277 276 276 276 276 275 274 273 273 273 273
Height
5820 5820 5820 5819 5819 5819 5819 5818 5818 5817 5817 5817 5816 5816 5816 5816 5815 5815 5815 5814 5814 5814 5815 5815 5814 5814 5814 5814 5814 5814 5814 5814 5814 5813 5813 5812 5812 5812 5811 5811 5810 5810 5809
5813 5813 5812 5812 5811 5811 5810 5810 5810 5809 5809 5808 5808 5807 5807 5807 5806 5806 5806 5806 5805 5805 5806 5806 5806 5806 5806 5806 5806 5806 5806 5806 5805 5805 5804 5804 5804 5804 5803 5803 5803 5802 5802
5806 5805 5804 5804 5803 5802 5802 5802 5801 5800 5800 5799 5799 5798 5798 5798 5797 5797 5797 5797 5796 5796 5796 5796 5796 5797 5797 5797 5796 5796 5796 5796 5796 5796 5795 5795 5795 5795 5795 5795 5794 5794 5794
5798 5797 5796 5795 5795 5794 5793 5793 5792 5791 5790 5790 5789 5789 5788 5788 5788 5788 5788 5787 5787 5787 5787 5787 5787 5787 5787 5787 5787 5787 5787 5787 5786 5786 5786 5786 5786 5785 5785 5786 5785 5785 5785
5790 5789 5788 5787 5786 5785 5784 5784 5783 5782 5781 5780 5779 5779 5779 5778 5778 5778 5778 5777 5777 5777 5777 5777 5776 5777 5776 5777 5777 5777 5777 5777 5777 5776 5776 5776 5776 5776 5776 5776 5776 5776 5775
5781 5780 5779 5778 5777 5776 5775 5774 5773 5772 5771 5770 5770 5769 5769 5768 5768 5767 5767 5767 5767 5766 5766 5766 5766 5766 5766 5766 5766 5766 5766 5767 5767 5766 5766 5766 5766 5765 5765 5765 5765 5766 5765
5772 5771 5770 5769 5768 5767 5766 5765 5764 5763 5762 5761 5760 5760 5759 5758 5758 5757 5757 5756 5756 5756 5756 5755 5755 5756 5756 5756 5756 5756 5756 5756 5756 5756 5755 5755 5755 5755 5754 5754 5755 5755 5755
5763 5762 5761 5760 5759 5758 5756 5755 5754 5753 5752 5751 5750 5749 5750 5749 5747 5746 5746 5745 5745 5745 5745 5745 5745 5745 5745 5745 5745 5745 5745 5745 5745 5745 5745 5745 5744 5744 5743 5743 5744 5744 5744
5755 5754 5753 5751 5750 5748 5747 5745 5744 5743 5742 5741 5739 5739 5738 5738 5737 5736 5735 5735 5734 5734 5734 5734 5734 5734 5734 5734 5734 5734 5734 5734 5734 5734 5734 5734 5733 5732 5732 5732 5733 5732 5732
5746 5745 5744 5742 5740 5739 5737 5736 5734 5733 5732 5731 5729 5728 5727 5726 5726 5726 5725 5724 5723 5723 5723 5722 5722 5722 5722 5722 5723 5723 5722 5722 5722 5722 5722 5722 5721 5721 5721 5721 5720 5721 5721
5737 5736 5735 5733 5731 5730 5728 5726 5725 5723 5722 5721 5719 5718 5717 5716 5714 5714 5715 5714 5713 5712 5711 5711 5710 5710 5710 5710 5710 5711 5711 5710 5710 5710 5710 5709 5709 5709 5709 5708 5708 5708 5708
5728 5727 5725 5724 5722 5720 5718 5717 5715 5713 5712 5710 5709 5707 5706 5705 5704 5703 5703 5703 5702 5701 5700 5699 5698 5698 5697 5697 5697 5697 5698 5697 5697 5697 5697 5696 5696 5696 5696 5696 5695 5695 5695
5719 5717 5716 5714 5713 5711 5709 5707 5705 5704 5702 5700 5698 5697 5695 5694 5693 5692 5691 5691 5690 5689 5688 5687 5686 5685 5684 5684 5684 5684 5684 5684 5683 5683 5684 5683 5683 5683 5683 5683 5682 5682 5682
5709 5708 5706 5705 5703 5701 5699 5698 5696 5694 5692 5690 5688 5686 5684 5683 5681 5680 5679 5679 5678 5678 5677 5676 5674 5672 5671 5670 5670 5669 5669 5669 5669 5669 5669 5669 5669 5669 5669 5669 5669 5669 5669
5699 5698 5696 5695 5693 5691 5689 5688 5685 5683 5681 5679 5677 5675 5673 5672 5670 5668 5667 5666 5665 5665 5665 5663 5661 5659 5657 5656 5655 5654 5654 5654 5654 5655 5655 5655 5655 5655 5655 5655 5655 5655 5656
5689 5688 5686 5685 5683 5681 5679 5677 5675 5673 5671 5669 5666 5664 5662 5661 5659 5657 5656 5654 5652 5651 5651 5651 5648 5645 5643 5641 5641 5640 5639 5639 5640 5640 5640 5640 5640 5640 5640 5640 5641 5641 5641
5679 5678 5676 5675 5673 5671 5669 5667 5665 5662 5660 5658 5656 5654 5652 5650 5648 5646 5644 5642 5640 5638 5637 5637 5633 5631 5629 5627 5626 5625 5625 5625 5625 5625 5625 5625 5624 5624 5624 5624 5625 5626 5626
5669 5668 5666 5665 5663 5661 5659 5657 5655 5652 5650 5648 5645 5643 5641 5639 5637 5634 5632 5630 5628 5625 5623 5622 5620 5617 5615 5613 5611 5610 5610 5610 5610 5610 5610 5609 5609 5608 5608 5608 5609 5610 5610
5659 5658 5656 5655 5653 5651 5649 5646 5644 5642 5639 5637 5635 5632 5630 5628 5625 5623 5620 5618 5615 5612 5609 5607 5605 5603 5601 5599 5598 5597 5596 5596 5596 5595 5595 5594 5593 5592 5592 5591 5592 5593 5593
5649 5648 5646 5644 5642 5640 5638 5636 5633 5631 5628 5626 5624 5621 5619 5616 5614 5611 5609 5606 5603 5600 5597 5594 5592 5590 5587 5585 5584 5583 5583 5582 5581 5580 5579 5578 5578 5576 5576 5575 5576 5576 5576
5638 5637 5635 5633 5631 5629 5627 5624 5622 5619 5617 5615 5612 5610 5607 5605 5602 5599 5597 5594 5590 5587 5584 5581 5579 5576 5574 5572 5570 5569 5569 5568 5567 5566 5565 5564 5563 5562 5560 5559 5559 5559 5560
5627 5626 5624 5622 5620 5618 5615 5613 5610 5608 5605 5603 5600 5598 5595 5593 5590 5587 5584 5581 5578 5574 5571 5568 5566 5563 5561 5558 5557 5555 5554 5555 5554 5554 5552 5551 5549 5548 5545 5544 5544 5544 5543
5616 5614 5612 5610 5608 5606 5603 5601 5598 5595 5593 5591 5588 5586 5583 5580 5578 5575 5571 5568 5565 5561 5558 5555 5553 5550 5548 5545 5544 5542 5540 5539 5540 5539 5538 5538 5535 5533 5531 5529 5529 5528 5528
5605 5603 5600 5598 5596 5593 5591 5588 5586 5583 5581 5578 5576 5573 5571 5568 5565 5562 5559 5555 5552 5548 5544 5541 5539 5536 5534 5532 5530 5528 5527 5526 5525 5523 5522 5523 5522 5520 5517 5515 5513 5513 5513
5593 5591 5589 5586 5584 5581 5578 5576 5573 5571 5568 5566 5563 5560 5557 5555 5552 5548 5545 5542 5539 5535 5531 5528 5525 5523 5521 5518 5516 5515 5513 5512 5512 5510 5508 5508 5507 5506 5505 5503 5500 5498 5498
5582 5579 5577 5574 5571 5569 5566 5563 5560 5558 5556 5553 5550 5547 5544 5541 5538 5534 5532 5529 5526 5522 5518 5515 5512 5510 5507 5505 5503 5501 5499 5498 5497 5496 5495 5494 5492 5491 5492 5492 5488 5485 5484